Antalya, Turkey

7:25 PM +03 on July 28, 2017 (GMT +0300)
Antalya

Weather History for LTAI - January, 2013

Change the Weather History Date:

Sunday, January 6, 2013

  Actual Average Record
Temperature  
Mean Temperature 50 °F -  
Max Temperature 59 °F 59 °F 66 °F (2001)
Min Temperature 41 °F 43 °F 37 °F (2002)
Degree Days  
Heating Degree Days 15    
Moisture  
Dew Point 36 °F    
Average Humidity 62    
Maximum Humidity 81    
Minimum Humidity 23    
Precipitation  
Precipitation 0.00 in 0.30 in - ()
Sea Level Pressure  
Sea Level Pressure 29.62 in    
Wind  
Wind Speed 6 mph ()    
Max Wind Speed 13 mph    
Max Gust Speed -    
Visibility 6.2 miles    
Events      
Averages and records for this station are not official NWS values.
T = Trace of Precipitation, MM = Missing Value Source: Averaged Metar Reports

Daily Weather History Graph

Daily Weather History Graph

Search for Another Location

Airport or City:

Trip Planner

Search our weather history database for the weather conditions in past years. The results will help you decide how hot, cold, wet, or windy it might be!

Date:

Astronomy

Jan. 06, 2013 Rise Set
Actual Time 7:10 AM EET 4:55 PM EET
Civil Twilight 6:41 AM EET 5:24 PM EET
Nautical Twilight 6:09 AM EET 5:56 PM EET
Astronomical Twilight 5:38 AM EET 6:28 PM EET
Moon 1:05 AM EET (1/6) 12:06 PM EET (1/6)
Length of Visible Light 10h 42m
Length of Day
9h 45m
Last Quarter, 36% of the Moon is Illuminated
Jan 6
Last Quarter
Jan 11
New
Jan 19
First Quarter
Jan 27
Full
Feb 3
Last Quarter

Hourly Weather History & Observations

Time (EET) Temp. Windchill Dew Point Humidity Pressure Visibility Wind Dir Wind Speed Gust Speed Precip Events Conditions
12:20 AM 48.2 °F - 33.8 °F 58% 29.71 in 6.2 mi NNW 6.9 mph - N/A   Scattered Clouds
12:50 AM 48.2 °F - 35.6 °F 62% 29.71 in 6.2 mi NW 4.6 mph - N/A   Scattered Clouds
1:20 AM 48.2 °F - 35.6 °F 62% 29.71 in 6.2 mi North 6.9 mph - N/A   Scattered Clouds
1:50 AM 46.4 °F 43.5 °F 37.4 °F 71% 29.68 in 6.2 mi NNW 5.8 mph - N/A   Scattered Clouds
2:00 AM 47 °F - 37 °F 60% 29.69 in 6 mi NNW 5.8 mph - -   Partly Cloudy
2:20 AM 48.2 °F - 35.6 °F 62% 29.68 in 6.2 mi NNW 5.8 mph - N/A   Scattered Clouds
2:50 AM 48.2 °F - 37.4 °F 66% 29.68 in 6.2 mi NNW 9.2 mph - N/A   Scattered Clouds
3:20 AM 48.2 °F - 39.2 °F 71% 29.68 in 6.2 mi North 12.7 mph - N/A   Mostly Cloudy
3:50 AM 50.0 °F - 35.6 °F 58% 29.68 in 6.2 mi NNW 12.7 mph - N/A   Mostly Cloudy
4:20 AM 50.0 °F - 35.6 °F 58% 29.68 in 6.2 mi NNW 12.7 mph - N/A   Mostly Cloudy
4:50 AM 48.2 °F - 37.4 °F 66% 29.65 in 6.2 mi North 11.5 mph - N/A   Mostly Cloudy
5:20 AM 48.2 °F - 37.4 °F 66% 29.68 in 6.2 mi North 12.7 mph - N/A   Mostly Cloudy
5:50 AM 44.6 °F 39.2 °F 37.4 °F 76% 29.65 in 6.2 mi North 10.4 mph - N/A   Mostly Cloudy
6:20 AM 44.6 °F 39.2 °F 37.4 °F 76% 29.68 in 6.2 mi North 10.4 mph - N/A   Mostly Cloudy
6:50 AM 44.6 °F 39.7 °F 35.6 °F 71% 29.68 in 6.2 mi NNW 9.2 mph - N/A   Scattered Clouds
7:20 AM 42.8 °F 38.6 °F 35.6 °F 76% 29.68 in 6.2 mi NNW 6.9 mph - N/A   Scattered Clouds
7:50 AM 42.8 °F 40.1 °F 35.6 °F 76% 29.68 in 6.2 mi NW 4.6 mph - N/A   Scattered Clouds
8:00 AM 43 °F - 35 °F 65% 29.69 in 6 mi NW 4.6 mph - -   Partly Cloudy
8:20 AM 46.4 °F 41.9 °F 35.6 °F 66% 29.68 in 6.2 mi NW 9.2 mph - N/A   Scattered Clouds
8:50 AM 48.2 °F - 33.8 °F 58% 29.68 in 6.2 mi NNW 10.4 mph - N/A   Scattered Clouds
9:20 AM 50.0 °F - 35.6 °F 58% 29.68 in 6.2 mi NNW 9.2 mph - N/A   Scattered Clouds
9:50 AM 51.8 °F - 33.8 °F 50% 29.68 in 6.2 mi NNW 6.9 mph - N/A   Scattered Clouds
10:20 AM 51.8 °F - 33.8 °F 50% 29.68 in 6.2 mi NNW 8.1 mph - N/A   Mostly Cloudy
10:50 AM 53.6 °F - 35.6 °F 51% 29.68 in 6.2 mi North 4.6 mph - N/A   Mostly Cloudy
11:20 AM 53.6 °F - 33.8 °F 47% 29.68 in 6.2 mi North 4.6 mph - N/A   Scattered Clouds
11:50 AM 55.4 °F - 37.4 °F 51% 29.65 in 6.2 mi North 6.9 mph - N/A   Scattered Clouds
12:20 PM 57.2 °F - 32.0 °F 38% 29.65 in 6.2 mi NE 5.8 mph - N/A   Partly Cloudy
12:50 PM 57.2 °F - 30.2 °F 36% 29.62 in 6.2 mi Variable 3.5 mph - N/A   Partly Cloudy
1:50 PM 59.0 °F - 32.0 °F 36% 29.59 in 6.2 mi Variable 1.2 mph - N/A   Partly Cloudy
2:00 PM 59 °F - 31 °F 23% 29.60 in 6 mi East 1.2 mph - -   Scattered Clouds
2:20 PM 59.0 °F - 32.0 °F 36% 29.59 in 6.2 mi SE 3.5 mph - N/A   Partly Cloudy
2:50 PM 59.0 °F - 33.8 °F 39% 29.59 in 6.2 mi Variable 2.3 mph - N/A   Partly Cloudy
3:20 PM 57.2 °F - 39.2 °F 51% 29.59 in 6.2 mi SSE 5.8 mph - N/A   Partly Cloudy
3:50 PM 55.4 °F - 37.4 °F 51% 29.59 in 6.2 mi South 4.6 mph - N/A   Partly Cloudy
4:20 PM 53.6 °F - 37.4 °F 54% 29.59 in 6.2 mi SSW 3.5 mph - N/A   Partly Cloudy
4:50 PM 51.8 °F - 39.2 °F 62% 29.56 in 6.2 mi West 2.3 mph - N/A   Partly Cloudy
5:20 PM 48.2 °F - 39.2 °F 71% 29.56 in 6.2 mi West 2.3 mph - N/A   Partly Cloudy
5:50 PM 46.4 °F - 39.2 °F 76% 29.56 in 6.2 mi Calm Calm - N/A   Partly Cloudy
6:20 PM 46.4 °F 45.2 °F 37.4 °F 71% 29.56 in 6.2 mi NNW 3.5 mph - N/A   Partly Cloudy
6:50 PM 44.6 °F 42.2 °F 39.2 °F 81% 29.56 in 6.2 mi North 4.6 mph - N/A   Partly Cloudy
7:20 PM 44.6 °F 42.2 °F 39.2 °F 81% 29.56 in 6.2 mi NW 4.6 mph - N/A   Partly Cloudy
7:50 PM 44.6 °F 39.7 °F 39.2 °F 81% 29.56 in 6.2 mi NNW 9.2 mph - N/A   Partly Cloudy
8:00 PM 44 °F - 39 °F 76% 29.55 in 6 mi NNW 9.2 mph - -   Scattered Clouds
8:20 PM 44.6 °F 40.7 °F 39.2 °F 81% 29.53 in 6.2 mi North 6.9 mph - N/A   Partly Cloudy
8:50 PM 44.6 °F 39.7 °F 37.4 °F 76% 29.53 in 6.2 mi NNW 9.2 mph - N/A   Partly Cloudy
9:20 PM 44.6 °F 40.7 °F 37.4 °F 76% 29.53 in 6.2 mi North 6.9 mph - N/A   Partly Cloudy
9:50 PM 42.8 °F 40.1 °F 37.4 °F 81% 29.53 in 6.2 mi NNW 4.6 mph - N/A   Partly Cloudy
10:20 PM 44.6 °F 41.4 °F 37.4 °F 76% 29.53 in 6.2 mi NW 5.8 mph - N/A   Partly Cloudy
10:50 PM 46.4 °F 41.5 °F 35.6 °F 66% 29.50 in 6.2 mi NW 10.4 mph - N/A   Partly Cloudy
11:20 PM 46.4 °F 41.5 °F 35.6 °F 66% 29.50 in 6.2 mi NW 10.4 mph - N/A   Partly Cloudy
11:50 PM 46.4 °F 41.9 °F 35.6 °F 66% 29.50 in 6.2 mi NW 9.2 mph - N/A   Partly Cloudy